N9ALD Weather Reports


time (UTC)temp
C
wind
direction
speed
KPH
gust
KPH
rain 1hr
cm
rain 24hr
cm
rain mn
cm
humidity
%
barometer
mb
20260509112054 10 165 0.0 0.0 0.00 1.02 1.02 98 1004.6
20260509111551 10 165 0.0 0.0 0.00 1.02 1.02 98 1004.4
20260509111048 10 165 0.0 0.0 0.00 1.02 1.02 98 1004.4
20260509110545 10 166 0.0 0.0 0.00 1.02 1.02 98 1004.3
20260509110042 10 165 0.0 0.0 0.00 1.02 1.02 98 1004.0
20260509105540 10 165 0.0 0.0 0.00 1.02 1.02 98 1004.2
20260509105038 10 165 0.0 0.0 0.00 1.02 1.02 98 1004.1
20260509104535 10 165 0.0 0.0 0.00 1.02 1.02 98 1004.0
20260509104031 10 165 0.0 0.0 0.00 1.02 1.02 98 1004.0
20260509103529 10 165 0.0 0.0 0.00 1.02 1.02 98 1004.1
20260509103027 10 165 0.0 0.0 0.00 1.02 1.02 98 1004.0
20260509102524 10 165 0.0 0.0 0.00 1.02 1.02 98 1004.0
20260509102021 10 165 0.0 0.0 0.00 1.02 1.02 98 1004.0
20260509101517 10 165 0.0 0.0 0.00 1.02 1.02 98 1004.2
20260509101014 10 165 0.0 0.0 0.00 1.02 1.02 98 1003.9
20260509100512 10 165 0.0 0.0 0.00 1.02 1.02 98 1003.7
20260509100009 10 165 0.0 0.0 0.00 1.02 1.02 98 1003.9
20260509095505 11 165 0.0 0.0 0.00 1.02 1.02 97 1004.1
20260509095003 11 165 0.0 0.0 0.00 1.02 1.02 98 1004.0
20260509094459 11 165 0.0 0.0 0.18 1.02 1.02 98 1004.0
20260509093956 11 165 0.0 0.0 0.18 1.02 1.02 98 1003.9
20260509093454 11 165 0.0 0.0 0.00 0.99 0.99 98 1004.0
20260509092951 11 165 0.0 0.0 0.00 0.99 0.99 97 1003.9
20260509092449 11 165 0.0 0.0 0.00 0.99 0.99 97 1004.0
20260509091948 11 165 1.6 1.6 0.00 0.99 0.99 97 1004.0
20260509091444 11 165 1.6 1.6 0.00 0.99 0.99 97 1004.2
20260509090941 12 165 0.0 0.0 0.00 0.99 0.99 97 1004.1
20260509090439 12 278 1.6 1.6 0.00 0.99 0.99 97 1004.1
20260509085936 12 237 1.6 1.6 0.00 0.99 0.99 97 1004.1
20260509085433 12 307 1.6 1.6 0.00 0.99 0.99 97 1004.2
20260509084929 12 303 1.6 1.6 0.00 0.99 0.99 97 1004.4
20260509084426 12 280 3.2 4.8 0.00 0.99 0.99 98 1004.4
20260509083924 12 314 1.6 3.2 0.13 0.99 0.99 98 1004.5
20260509083421 12 311 3.2 3.2 0.13 0.99 0.99 98 1004.6
20260509082917 12 268 4.8 6.4 0.30 0.99 0.99 98 1004.7
20260509082415 12 243 4.8 4.8 0.30 0.97 0.97 98 1004.6
20260509081911 12 273 6.4 9.7 0.30 0.94 0.94 98 1004.5
20260509081409 12 254 4.8 4.8 0.30 0.91 0.91 98 1004.4
20260509080906 12 220 6.4 9.7 0.30 0.89 0.89 98 1004.5
20260509080404 12 291 3.2 4.8 0.18 0.86 0.86 98 1004.5
20260509075902 12 259 6.4 6.4 0.00 0.84 0.84 98 1004.4
20260509075358 12 253 6.4 9.7 0.18 0.84 0.84 98 1004.4
20260509074856 12 240 4.8 4.8 0.18 0.84 0.84 98 1004.5
20260509074354 12 245 4.8 4.8 0.00 0.81 0.81 98 1004.7
20260509073849 12 228 4.8 6.4 0.00 0.81 0.81 98 1004.6
20260509073346 12 233 3.2 3.2 0.00 0.81 0.81 98 1004.6
20260509072843 12 292 3.2 3.2 0.00 0.81 0.81 97 1004.6
20260509072339 12 310 3.2 3.2 0.00 0.81 0.81 97 1004.4
20260509071836 12 209 3.2 4.8 0.00 0.81 0.81 97 1004.3
20260509071333 12 245 1.6 3.2 0.13 0.81 0.81 97 1004.5
20260509070830 12 248 4.8 4.8 0.13 0.81 0.81 97 1004.7
20260509070327 12 245 3.2 3.2 0.00 0.79 0.79 97 1004.9
20260509065823 12 229 4.8 6.4 0.00 0.79 0.79 97 1004.8
20260509065319 12 237 4.8 4.8 0.00 0.79 0.79 97 1004.9
20260509064815 12 275 3.2 3.2 0.00 0.79 0.79 97 1005.0
20260509064313 12 238 6.4 6.4 0.00 0.79 0.79 97 1005.1
20260509063811 12 293 1.6 3.2 0.00 0.79 0.79 97 1005.3
20260509063307 12 222 3.2 4.8 0.00 0.79 0.79 97 1005.2
20260509062804 12 233 3.2 3.2 0.00 0.79 0.79 97 1005.3
20260509062301 12 248 3.2 3.2 0.00 0.79 0.79 97 1005.5
20260509061758 12 245 3.2 3.2 0.00 0.79 0.79 97 1005.3
20260509061256 12 235 3.2 3.2 0.00 0.79 0.79 97 1005.1
20260509060753 12 242 4.8 4.8 0.00 0.79 0.79 97 1005.3
20260509060250 12 237 6.4 6.4 0.00 0.79 0.79 97 1005.4
20260509055745 12 315 1.6 1.6 0.00 0.79 0.79 97 1005.6
20260509055241 12 280 3.2 4.8 0.48 0.79 0.79 97 1005.5
20260509054738 12 222 1.6 3.2 0.79 0.79 0.79 97 1005.7
20260509054235 12 252 8.0 11.3 0.61 0.76 0.76 97 1005.7
20260509053733 12 245 6.4 6.4 0.30 0.66 0.66 97 1005.8
20260509053230 12 243 4.8 4.8 0.43 0.66 0.66 97 1005.9
20260509052728 12 209 3.2 3.2 0.43 0.61 0.61 97 1006.0
20260509052225 12 222 4.8 4.8 0.66 0.58 0.58 97 1006.2
20260509051723 12 238 6.4 9.7 0.66 0.53 0.53 97 1006.0
20260509051220 12 262 3.2 4.8 0.61 0.48 0.48 97 1006.3
20260509050717 12 229 4.8 4.8 0.43 0.43 0.43 97 1006.3
20260509050213 12 209 3.2 3.2 0.61 0.41 0.41 97 1006.3
20260509045711 12 265 3.2 3.2 0.48 0.36 0.36 97 1006.3
20260509045208 12 227 1.6 1.6 0.30 0.30 0.30 97 1006.2
20260509044705 12 314 0.0 0.0 0.30 0.28 0.28 97 1006.1
20260509044203 12 305 0.0 0.0 0.48 0.25 0.25 97 1006.3
20260509043659 12 229 3.2 3.2 0.48 0.23 0.23 97 1006.2
20260509043155 12 251 3.2 3.2 0.48 0.18 0.18 97 1006.4
20260509042651 12 264 3.2 3.2 0.61 0.15 0.15 97 1006.2
20260509042147 12 198 3.2 3.2 0.43 0.10 0.10 97 1006.0
20260509041644 12 216 3.2 4.8 0.13 0.05 0.05 97 1006.1
20260509041141 12 290 3.2 4.8 0.18 0.03 0.03 97 1006.1
20260509040640 12 241 1.6 3.2 0.30 0.03 0.03 97 1006.0
20260509040136 12 237 4.8 6.4 0.13 0.00 0.00 97 1005.9
20260509035633 12 213 4.8 4.8 0.18 1.12 1.12 97 1006.1
20260509035130 12 173 4.8 6.4 0.18 1.12 1.12 97 1006.0
20260509034628 12 281 3.2 3.2 0.00 1.09 1.09 97 1006.1
20260509034125 12 224 6.4 9.7 0.00 1.09 1.09 97 1006.0
20260509033621 12 162 3.2 3.2 0.00 1.09 1.09 97 1006.1
20260509033118 12 200 3.2 3.2 0.13 1.09 1.09 97 1006.1
20260509032616 12 273 3.2 3.2 0.13 1.09 1.09 97 1006.2
20260509032112 12 240 3.2 3.2 0.18 1.07 1.07 97 1006.2
20260509031610 12 263 1.6 1.6 0.30 1.07 1.07 97 1006.4
20260509031108 12 213 1.6 1.6 0.13 1.04 1.04 97 1006.2
20260509030606 12 293 1.6 1.6 0.13 1.04 1.04 96 1006.3
20260509025558 12 253 1.6 3.2 0.00 1.02 1.02 96 1006.2
20260509025054 12 220 3.2 4.8 0.00 1.02 1.02 96 1006.2
20260509024550 12 221 0.0 0.0 0.00 1.02 1.02 96 1006.4
20260509024046 12 190 3.2 3.2 0.00 1.02 1.02 96 1006.5
20260509023544 12 270 1.6 1.6 0.00 1.02 1.02 96 1006.3
20260509023041 12 272 1.6 1.6 0.00 1.02 1.02 96 1006.4
20260509022537 12 286 0.0 1.6 0.00 1.02 1.02 96 1006.4
20260509022035 12 291 0.0 0.0 0.00 1.02 1.02 96 1006.3
20260509021532 12 309 0.0 0.0 0.18 1.02 1.02 96 1006.3
20260509021029 12 243 0.0 1.6 0.36 1.02 1.02 96 1006.4
20260509020527 12 173 3.2 3.2 0.18 0.99 0.99 96 1006.3
20260509020024 12 311 0.0 0.0 0.30 0.99 0.99 96 1006.5
20260509015523 12 270 1.6 1.6 0.30 0.97 0.97 96 1006.5
20260509015020 12 234 3.2 3.2 0.48 0.94 0.94 96 1006.6
20260509014516 12 285 3.2 3.2 0.61 0.91 0.91 95 1006.4
20260509014012 12 206 3.2 4.8 0.43 0.86 0.86 95 1006.5
20260509013509 12 269 0.0 1.6 0.30 0.81 0.81 95 1006.5
20260509013005 12 264 3.2 3.2 0.18 0.79 0.79 95 1006.4
20260509012502 12 253 0.0 0.0 0.13 0.76 0.76 95 1006.3
20260509011959 12 278 3.2 3.2 0.13 0.76 0.76 95 1006.3
20260509011457 12 269 1.6 3.2 0.18 0.74 0.74 95 1006.3
20260509010954 12 174 1.6 1.6 0.18 0.74 0.74 95 1006.1
20260509010452 12 291 0.0 1.6 0.00 0.71 0.71 95 1006.3
20260509005948 12 272 3.2 3.2 0.00 0.71 0.71 95 1006.1
20260509005446 12 244 4.8 4.8 0.18 0.71 0.71 95 1006.2
20260509004946 12 269 6.4 9.7 0.18 0.71 0.71 95 1006.3
20260509004443 12 254 3.2 4.8 0.13 0.69 0.69 95 1006.4
20260509003941 12 222 1.6 3.2 0.30 0.69 0.69 95 1006.4
20260509003438 12 208 4.8 4.8 0.18 0.66 0.66 95 1006.3
20260509002935 13 312 1.6 1.6 0.18 0.66 0.66 95 1006.3
20260509002433 12 252 3.2 3.2 0.00 0.64 0.64 94 1006.4
20260509001930 13 283 0.0 0.0 0.00 0.64 0.64 94 1005.8
20260509001426 13 254 0.0 1.6 0.00 0.64 0.64 94 1006.0
20260509000923 12 262 3.2 3.2 0.00 0.64 0.64 94 1006.3
20260509000421 12 266 3.2 3.2 0.13 0.64 0.64 94 1006.3
20260508235917 13 268 1.6 3.2 0.30 0.64 0.64 94 1006.0
20260508235415 13 301 3.2 3.2 0.30 0.61 0.61 94 1006.4
20260508234911 13 316 1.6 1.6 0.30 0.58 0.58 94 1006.5
20260508234408 13 299 1.6 1.6 0.30 0.56 0.56 94 1006.5
20260508233906 12 323 1.6 1.6 0.30 0.53 0.53 94 1006.6
20260508233406 12 272 4.8 4.8 0.43 0.53 0.53 93 1006.6
20260508232902 13 328 0.0 0.0 0.30 0.48 0.48 93 1006.6
20260508232358 13 306 1.6 3.2 0.30 0.46 0.46 93 1006.6
20260508231856 13 349 1.6 1.6 0.30 0.43 0.43 93 1006.6
20260508231353 13 15 0.0 0.0 0.18 0.41 0.41 93 1006.4
20260508230849 13 40 0.0 0.0 0.18 0.38 0.38 93 1006.4
20260508230346 13 20 4.8 4.8 0.30 0.38 0.38 93 1006.5
20260508225844 13 5 1.6 1.6 0.30 0.36 0.36 93 1006.7
20260508225340 13 19 1.6 1.6 0.30 0.33 0.33 92 1006.8
20260508224838 13 20 0.0 1.6 0.43 0.30 0.30 92 1006.6
20260508224335 13 8 1.6 1.6 0.48 0.28 0.28 92 1006.8
20260508223833 13 4 1.6 3.2 0.43 0.25 0.25 92 1006.7
20260508223330 13 19 0.0 1.6 0.13 0.20 0.20 92 1006.5
20260508222827 13 14 3.2 3.2 0.18 0.18 0.18 91 1006.8
20260508222324 13 8 3.2 3.2 0.18 0.18 0.18 91 1006.5
20260508221821 13 29 0.0 1.6 0.00 0.15 0.15 90 1006.1
20260508221316 13 32 0.0 0.0 0.00 0.15 0.15 90 1006.2
20260508220813 13 11 1.6 1.6 0.00 0.15 0.15 89 1006.4
20260508220309 13 17 1.6 3.2 0.13 0.15 0.15 88 1006.3
20260508215806 13 0 1.6 1.6 0.30 0.15 0.15 87 1006.4
20260508215306 14 343 3.2 3.2 0.30 0.13 0.13 86 1006.4
20260508214800 14 335 3.2 4.8 0.30 0.10 0.10 85 1006.7
20260508214257 15 319 4.8 4.8 0.18 0.08 0.08 83 1006.6
20260508213753 15 322 4.8 4.8 0.18 0.05 0.05 80 1006.8
20260508213250 15 316 8.0 9.7 0.18 0.05 0.05 77 1006.6
20260508212747 15 299 6.4 9.7 0.00 0.03 0.03 75 1006.5
20260508212243 16 292 3.2 3.2 0.13 0.03 0.03 74 1006.2
20260508211739 16 305 4.8 6.4 0.13 0.03 0.03 70 1006.2
20260508211235 16 297 3.2 4.8 0.00 0.00 0.00 70 1006.2
20260508210732 16 326 1.6 3.2 0.00 0.00 0.00 71 1006.0
20260508210229 16 275 3.2 4.8 0.00 0.00 0.00 69 1006.0
20260508205726 16 252 3.2 3.2 0.00 0.00 0.00 69 1006.0
20260508205222 16 235 1.6 3.2 0.00 0.00 0.00 68 1006.1
20260508204718 16 266 6.4 6.4 0.00 0.00 0.00 65 1006.2
20260508204215 17 293 6.4 6.4 0.00 0.00 0.00 65 1006.0
20260508203711 17 240 17.7 24.1 0.00 0.00 0.00 60 1006.2
20260508203208 18 285 9.7 11.3 0.00 0.00 0.00 57 1006.2
20260508202704 18 253 6.4 6.4 0.00 0.00 0.00 55 1006.1
20260508202201 18 291 8.0 11.3 0.00 0.00 0.00 54 1006.0
20260508201658 18 195 8.0 9.7 0.00 0.00 0.00 54 1006.1
20260508201154 18 234 8.0 9.7 0.00 0.00 0.00 54 1006.1
20260508200651 18 253 4.8 4.8 0.00 0.00 0.00 54 1006.3
20260508200147 18 172 14.5 17.7 0.00 0.00 0.00 52 1006.2
20260508195644 18 227 6.4 6.4 0.00 0.00 0.00 52 1006.2
20260508195141 18 286 6.4 9.7 0.00 0.00 0.00 53 1006.3
20260508194637 18 289 3.2 4.8 0.00 0.00 0.00 52 1006.2
20260508194134 18 217 6.4 11.3 0.00 0.00 0.00 53 1006.1
20260508193631 18 224 6.4 9.7 0.00 0.00 0.00 52 1006.6
20260508193128 18 169 6.4 6.4 0.00 0.00 0.00 53 1006.6
20260508192624 18 206 6.4 9.7 0.00 0.00 0.00 54 1006.9
20260508192122 18 288 4.8 4.8 0.00 0.00 0.00 52 1006.9
20260508191618 18 262 3.2 4.8 0.00 0.00 0.00 53 1006.8
20260508191115 18 276 6.4 9.7 0.00 0.00 0.00 52 1006.8
20260508190613 18 317 4.8 6.4 0.00 0.00 0.00 51 1006.9
20260508190109 18 195 8.0 9.7 0.00 0.00 0.00 52 1007.0
20260508185606 18 218 6.4 9.7 0.00 0.00 0.00 55 1006.9
20260508185103 18 253 9.7 11.3 0.00 0.00 0.00 54 1007.0
20260508184601 18 275 6.4 9.7 0.00 0.00 0.00 56 1007.2
20260508184057 18 203 4.8 4.8 0.00 0.00 0.00 56 1007.2
20260508183554 18 159 6.4 11.3 0.00 0.00 0.00 56 1007.2
20260508183050 18 204 9.7 12.9 0.00 0.00 0.00 54 1007.4
20260508182546 18 241 11.3 14.5 0.00 0.00 0.00 54 1007.4
20260508182043 18 219 6.4 9.7 0.00 0.00 0.00 55 1007.5
20260508181538 18 227 12.9 16.1 0.00 0.00 0.00 53 1007.5
20260508181036 18 190 8.0 12.9 0.00 0.00 0.00 56 1007.4
20260508180532 17 289 9.7 11.3 0.00 0.00 0.00 56 1007.6
20260508180029 17 242 6.4 6.4 0.00 0.00 0.00 56 1007.8
20260508175525 17 229 12.9 14.5 0.00 0.00 0.00 55 1007.8
20260508175023 17 206 3.2 4.8 0.00 0.00 0.00 56 1008.1
20260508174520 18 232 9.7 12.9 0.00 0.00 0.00 54 1007.7
20260508174017 18 221 14.5 20.9 0.00 0.00 0.00 54 1007.9
20260508173514 18 242 9.7 12.9 0.00 0.00 0.00 55 1008.0
20260508173010 18 200 12.9 17.7 0.00 0.00 0.00 54 1008.2
20260508172507 18 227 11.3 14.5 0.00 0.00 0.00 55 1008.4
20260508172004 17 277 9.7 12.9 0.00 0.00 0.00 57 1008.2
20260508171500 17 210 8.0 9.7 0.00 0.00 0.00 59 1008.4
20260508170956 17 215 11.3 16.1 0.00 0.00 0.00 59 1008.4
20260508170454 17 253 6.4 11.3 0.00 0.00 0.00 58 1008.7
20260508165951 17 227 9.7 11.3 0.00 0.00 0.00 58 1008.7
20260508165449 17 251 8.0 11.3 0.00 0.00 0.00 58 1008.8
20260508164944 17 235 8.0 9.7 0.00 0.00 0.00 56 1009.0
20260508164442 17 201 11.3 14.5 0.00 0.00 0.00 57 1008.8
20260508163939 17 251 6.4 6.4 0.00 0.00 0.00 57 1009.0
20260508163437 16 182 12.9 14.5 0.00 0.00 0.00 57 1009.1
20260508162932 16 257 6.4 9.7 0.00 0.00 0.00 60 1009.1
20260508162430 16 246 8.0 12.9 0.00 0.00 0.00 60 1009.5
20260508161926 16 254 11.3 16.1 0.00 0.00 0.00 58 1009.5
20260508161423 16 144 11.3 14.5 0.00 0.00 0.00 59 1009.5
20260508160921 16 219 11.3 14.5 0.00 0.00 0.00 57 1009.6
20260508160420 16 263 9.7 16.1 0.00 0.00 0.00 57 1009.6
20260508155915 16 239 8.0 12.9 0.00 0.00 0.00 60 1009.5
20260508155413 16 274 6.4 12.9 0.00 0.00 0.00 59 1009.5
20260508154909 16 188 9.7 14.5 0.00 0.00 0.00 58 1009.7
20260508154407 16 235 8.0 9.7 0.00 0.00 0.00 57 1009.5
20260508153903 17 291 9.7 12.9 0.00 0.00 0.00 56 1009.7
20260508153401 17 215 8.0 12.9 0.00 0.00 0.00 56 1009.6
20260508152856 17 246 9.7 11.3 0.00 0.00 0.00 55 1009.5
20260508152353 17 271 9.7 11.3 0.00 0.00 0.00 54 1009.4
20260508151849 17 237 4.8 6.4 0.00 0.00 0.00 58 1009.5
20260508151347 17 230 6.4 6.4 0.00 0.00 0.00 59 1009.4
20260508150843 17 283 8.0 9.7 0.00 0.00 0.00 59 1009.5
20260508150340 17 261 9.7 11.3 0.00 0.00 0.00 57 1009.6
20260508145836 17 250 14.5 17.7 0.00 0.00 0.00 56 1009.5
20260508145332 16 248 8.0 9.7 0.00 0.00 0.00 58 1009.6
20260508144829 17 244 11.3 16.1 0.00 0.00 0.00 56 1009.6
20260508144327 17 265 11.3 16.1 0.00 0.00 0.00 55 1009.7
20260508143824 16 253 9.7 14.5 0.00 0.00 0.00 56 1009.8
20260508143321 16 294 4.8 6.4 0.00 0.00 0.00 59 1010.0
20260508142818 16 270 11.3 12.9 0.00 0.00 0.00 56 1010.1
20260508142315 16 277 12.9 14.5 0.00 0.00 0.00 56 1010.0
20260508141811 16 210 6.4 6.4 0.00 0.00 0.00 57 1010.2
20260508141308 16 216 6.4 9.7 0.00 0.00 0.00 59 1010.1
20260508140806 15 247 9.7 12.9 0.00 0.00 0.00 59 1010.3
20260508140303 15 248 9.7 11.3 0.00 0.00 0.00 57 1010.2
20260508135758 15 230 14.5 17.7 0.00 0.00 0.00 57 1010.3
20260508135255 15 254 11.3 16.1 0.00 0.00 0.00 56 1010.1
20260508134750 15 238 9.7 12.9 0.00 0.00 0.00 58 1010.1
20260508134248 15 202 3.2 4.8 0.00 0.00 0.00 61 1010.1
20260508133744 14 254 9.7 11.3 0.00 0.00 0.00 57 1010.2
20260508133242 14 243 9.7 14.5 0.00 0.00 0.00 60 1010.1
20260508132740 13 203 8.0 11.3 0.00 0.00 0.00 58 1010.3
20260508132237 13 231 11.3 16.1 0.00 0.00 0.00 59 1010.5
20260508131732 14 263 9.7 14.5 0.00 0.00 0.00 57 1010.4
20260508131229 13 216 8.0 11.3 0.00 0.00 0.00 60 1010.5
20260508130725 13 239 9.7 12.9 0.00 0.00 0.00 61 1010.4
20260508130223 13 249 11.3 12.9 0.00 0.00 0.00 59 1010.4
20260508125718 12 238 6.4 9.7 0.00 0.00 0.00 61 1010.4
20260508125215 12 254 9.7 12.9 0.00 0.00 0.00 62 1010.5
20260508124713 12 249 6.4 9.7 0.00 0.00 0.00 63 1010.4
20260508124210 12 241 6.4 6.4 0.00 0.00 0.00 62 1010.6
20260508123708 12 185 6.4 6.4 0.00 0.00 0.00 62 1010.5
20260508123206 11 266 9.7 11.3 0.00 0.00 0.00 61 1010.4
20260508122702 11 230 12.9 17.7 0.00 0.00 0.00 62 1010.3
20260508122159 11 210 6.4 11.3 0.00 0.00 0.00 62 1010.2
20260508121657 11 192 6.4 9.7 0.00 0.00 0.00 63 1010.2
20260508121155 11 251 4.8 6.4 0.00 0.00 0.00 64 1010.1
20260508120652 10 214 6.4 9.7 0.00 0.00 0.00 64 1010.2
20260508120150 10 196 6.4 6.4 0.00 0.00 0.00 66 1010.4
20260508115648 10 238 8.0 9.7 0.00 0.00 0.00 66 1010.3
20260508115144 10 205 8.0 9.7 0.00 0.00 0.00 67 1010.3
20260508114641 10 278 4.8 4.8 0.00 0.00 0.00 66 1010.2
20260508114137 10 269 9.7 12.9 0.00 0.00 0.00 67 1010.4
20260508113634 9 241 6.4 9.7 0.00 0.00 0.00 68 1010.1
20260508113133 9 240 8.0 11.3 0.00 0.00 0.00 68 1010.1
20260508112628 8 222 4.8 6.4 0.00 0.00 0.00 68 1010.1